Regional Weather Roundup
Issued by NWS

Home | Current Version | Previous Version | Graphics & Text | Print | Product List | Glossary On
Versions: 1 2 3 4 5 6 7 8 9 10 11 12 13 14 15 16 17 18 19 20 21 22 23 24 25 26 27 28 29 30 31 32 33 34 35 36 37 38 39 40 41 42 43 44 45 46 47 48 49 50
000
ASUS43 KMPX 291410
RWRMN
WEATHER ROUNDUP FOR MINNESOTA
NATIONAL WEATHER SERVICE TWIN CITIES/CHANHASSEN MN
900 AM CDT SAT AUG 29 2015


NOTE: "FAIR" INDICATES FEW OR NO CLOUDS BELOW 12,000 FEET WITH NO
SIGNIFICANT WEATHER AND/OR OBSTRUCTIONS TO VISIBILITY. N/A MEANS
CURRENT SKY AND/OR WEATHER CONDITIONS ARE NOT AVAILABLE.

MNZ060>063-068>070-291500-
   Twin Cities Metro

CITY           SKY/WX    TMP DP  RH WIND       PRES   REMARKS
TWIN CITIES    FOG       57  56  96 SE3       30.07F VSB 1
ST PAUL        CLOUDY    57  56  96 SE6       30.07F FOG
CRYSTAL        MOSUNNY   60  56  86 SE5       30.05F
LAKEVILLE      CLOUDY    55  55 100 CALM      30.07F FOG
EDEN PRAIRIE   CLOUDY    58  56  93 S3        30.06F FOG
SOUTH ST PAUL  CLOUDY    58  56  94 S3        30.07S FOG
LAKE ELMO      CLOUDY    55  55 100 S5        30.07F FOG
$$
MNZ001>005-007-008-013>017-022>024-027-028-291500-
   Northwest Minnesota

CITY           SKY/WX    TMP DP  RH WIND       PRES   REMARKS
BEMIDJI        SUNNY     63  60  89 S7        29.99S
HALLOCK        FOG       66  64  94 SE9       29.92S VSB<1/4
ROSEAU         HAZE      66  61  82 S5        29.95R VSB<1/4
WARROAD        FOG       64  61  88 CALM      29.95S VSB 1/4
THIEF RVR FALL PTSUNNY  N/A N/A N/A S10       29.93F
CROOKSTON      SUNNY     64  63  94 S13       29.94S
FOSSTON        SUNNY     64  61  88 S12       29.97S
DETROIT LAKES  SUNNY     64  59  82 S7        30.00F
MOORHEAD       SUNNY     63  61  94 S14       29.97S
PARK RAPIDS    SUNNY     62  58  86 S7        30.02R
MAHNOMEN       FAIR      64  61  88 S12       29.97S
$$
MNZ006-009>011-018-025>026-291500-
   North Central Minnesota

CITY           SKY/WX    TMP DP  RH WIND       PRES   REMARKS
BAUDETTE       CLOUDY    64  63  96 S3        29.96S
FLAG ISLAND    FOG       64  63  94 CALM      29.94S VSB<1/4
INTL FALLS     CLOUDY    67  63  87 SW8       29.98S
WASKISH        CLOUDY    64  63  94 S3        29.97S
BIG FORK       CLOUDY    64  61  88 S9        30.01R
LONGVILLE      MOSUNNY   63  57  82 S5        30.02S
GRAND RAPIDS     N/A     61  55  82 S9        30.03S
CRANE LAKE     CLOUDY    63  61  94 S3        30.01R
ORR            CLOUDY    64  57  77 SW1       29.98S
COOK           CLOUDY    64  59  82 SW8       30.02R
WALKER         FAIR      62  58  86 S7        30.00S
$$
MNZ012-019>021-037-291500-
   Northeast Minnesota

CITY           SKY/WX    TMP DP  RH WIND       PRES   REMARKS
DULUTH         CLOUDY    61  56  83 W9        30.03F
ELY            CLOUDY    63  59  88 SW8       30.01S
HIBBING        CLOUDY    62  57  83 S6        30.03S
EVELETH        PTSUNNY   59  57  94 SW6       30.04R
DULUTH HARBOR  CLOUDY    61  57  88 SW10      30.03F
TWO HARBORS    CLOUDY    64  61  88 W8        30.00S
SILVER BAY     PTSUNNY   66  61  82 W3        29.99S
GRAND MARAIS     N/A     51  49  92 SW8       29.97S
G MARAIS ARPRT MOSUNNY   63  55  77 W10G17    30.01S
$$
MNZ029>031-032-039>041-046>048-054>057-064-291500-
   West Central Minnesota

CITY           SKY/WX    TMP DP  RH WIND       PRES   REMARKS
FERGUS FALLS   SUNNY     63  61  94 S9        30.00F
WHEATON        SUNNY     61  57  88 S7        30.02S
MORRIS         SUNNY     61  57  88 S10       30.03S
ALEXANDRIA     CLOUDY    61  57  87 S8        30.06S
ELBOW LAKE     FAIR      61  58  88 S12       30.02S
WADENA         SUNNY     59  57  94 S7        30.02S
GLENWOOD       PTSUNNY   57  57 100 S7        30.06S
APPLETON       SUNNY     61  55  82 S7        30.04S
BENSON         SUNNY     59  55  88 S6        30.05S
ORTONVILLE     SUNNY     59  55  88 SE5       30.03S
MADISON        SUNNY     59  57  94 S3        30.04S
WILLMAR        FOG       57  55  94 S3        30.08S VSB 1/2
$$
MNZ033>034-036-042>043-049>051-058-059-291500-
   Central Minnesota

CITY           SKY/WX    TMP DP  RH WIND       PRES   REMARKS
ST CLOUD       MOSUNNY   58  57  97 SW3       30.07S FOG
SAUK CENTRE    CLOUDY    58  57  99 S6        30.07S
PAYNESVILLE    SUNNY     57  56  95 SE5       30.08R
AITKIN         CLOUDY    63  55  77 S7        30.04R
PINE RIVER     MOSUNNY   61  57  88 S8        30.06F
BRAINERD       CLOUDY    59  56  89 S9        30.05S
STAPLES        SUNNY     61  57  88 S8        30.04S
LONG PRAIRIE   CLOUDY    57  55  94 S7        30.07R
LITTLE FALLS   CLOUDY    57  55  94 SE5       30.07S
LITCHFIELD     FOG       57  57 100 CALM      30.08R VSB 1/4
BUFFALO        MOSUNNY   58  55  90 S3        30.08S FOG
MAPLE LAKE     MOSUNNY   59  59  99 S3        30.08S FOG
$$
MNZ037-044-045-052-053-291500-
   East Central Minnesota

CITY           SKY/WX    TMP DP  RH WIND       PRES   REMARKS
PRINCETON      MOSUNNY   59  57  94 CALM      30.07S
MORA           MOSUNNY   55  54  94 CALM      30.08S
CAMBRIDGE      MOSUNNY   61  52  72 CALM      30.05S
RUSH CITY      MOSUNNY   58  56  95 S3        30.07R
MOOSE LAKE     CLOUDY    59  55  88 SW6       30.04S
HINCKLEY       FAIR      59  57  94 SW5       30.06S
CLOQUET        CLOUDY    61  55  82 SW5       30.05R
MCGREGOR       CLOUDY    59  55  88 S6        30.05F
$$
MNZ071>073-080-081-089-090-097-098-291500-
   Southwest Minnesota

CITY           SKY/WX    TMP DP  RH WIND       PRES   REMARKS
MONTEVIDEO     SUNNY     61  61 100 S3        30.07S
GRANITE FALLS  SUNNY     56  56 100 SE3       30.07S
CANBY          SUNNY     59  57  93 SE5       30.06R
MARSHALL       SUNNY     59  54  82 S6        30.06F
REDWOOD FALLS  FOG       55  54  96 S6        30.07R VSB 1/4
OLIVIA         FOG       52  50  93 S3        30.06S VSB 1/4
PIPESTONE      SUNNY     57  57 100 CALM      30.07S
WINDOM         FOG       57  55  94 CALM      30.08R VSB<1/4
WORTHINGTON    CLOUDY    55  52  88 S3        30.08S VSB<1/4
JACKSON        FOG       57  57 100 CALM      30.08S VSB 1/4
TRACY          SUNNY     59  58  95 SW6       30.08R
SLAYTON        SUNNY     57  57 100 CALM      30.08F
$$
MNZ065>067-074>077-082>085-091>093-291500-
   South Central Minnesota

CITY           SKY/WX    TMP DP  RH WIND       PRES   REMARKS
MANKATO        CLOUDY    57  55  94 CALM      30.08R VSB 1/4
NEW ULM        FOG       55  55 100 CALM      30.08R VSB<1/4
ST JAMES       FOG       57  57 100 NE3       30.09R VSB 1/4
FAIRMONT       CLOUDY    57  52  82 NE6       30.08R VSB 3/4
GLENCOE        FOG       57  57 100 CALM      30.08R VSB<1/4
FARIBAULT      CLOUDY    57  57 100 CALM      30.08S FOG
OWATONNA       CLOUDY    59  57  94 E6        30.08S FOG
WASECA         FOG       55  55 100 MISG      30.09R VSB 1/2
ALBERT LEA     CLOUDY    59  59 100 NE5       30.07R FOG
$$
MNZ078>079-086>088-094>096-291500-
   Southeast Minnesota

CITY           SKY/WX    TMP DP  RH WIND       PRES   REMARKS
ROCHESTER      FOG       59  58  96 NE8       30.07F VSB 1/2
RED WING       CLOUDY    57  57 100 CALM      30.05F
STANTON        CLOUDY    58  56  94 CALM      30.06F FOG
DODGE CENTER   FOG       57  57 100 E5        30.07F VSB 1/4
WINONA         CLOUDY    61  57  88 CALM      30.05F
AUSTIN         CLOUDY    61  59  94 NE5       30.06S FOG
PRESTON        FOG       58  57  96 NE8       30.07S VSB 1/2
$$
ABBREVIATIONS USED IN REMARKS
   TC - TEMPERATURES IN CELSIUS
  WCI - WIND CHILL INDEX
   HX - HEAT INDEX
  VSB - VISIBILITY
$$


USA.gov is the U.S. government's official web portal to all federal, state and local government web resources and services.